Wind_Speed
18 17 14 12 9 7 5 3 1 2 4 5 7 8 8 9 10 11 12 12 12 12 12 12 12 12 12 12 11 11 11 10 10 10 9 9 9 8 8 7 7 6 5 4
20 18 15 13 12 10 8 6 5 4 4 4 6 7 7 8 8 9 10 10 10 10 11 11 11 11 12 11 11 11 10 10 11 10 10 10 9 8 8 8 7 6 5 4
21 19 18 17 14 12 10 9 8 7 6 5 5 6 8 8 8 8 8 9 9 9 9 10 9 10 10 10 10 10 10 10 11 11 11 10 10 10 9 8 8 7 6 5
23 22 21 19 17 15 12 11 11 9 8 7 7 7 7 9 7 7 7 7 7 7 7 8 8 8 8 9 9 9 9 10 10 10 11 10 10 10 9 8 8 8 7 6
25 23 22 21 18 17 15 13 12 11 11 10 9 9 8 7 6 6 6 6 6 5 5 7 7 7 7 7 8 9 9 9 9 10 10 10 9 9 9 8 8 7 7 7
28 26 24 22 20 18 17 15 15 14 14 12 11 10 8 6 6 6 6 6 5 4 4 5 6 6 6 7 7 7 8 8 8 8 9 8 9 9 9 9 8 7 7 6
29 28 26 24 22 20 19 18 17 16 15 13 12 11 7 6 6 6 6 5 5 4 3 3 4 5 5 5 5 6 6 6 6 7 7 7 7 7 7 8 7 7 7 7
29 29 27 25 23 22 20 19 18 18 16 15 15 14 11 9 8 7 7 6 6 5 4 3 3 2 3 3 3 3 4 4 4 5 5 5 5 5 6 6 6 6 6 6
30 29 27 26 24 23 23 21 20 19 18 18 17 15 14 12 11 9 8 8 7 7 6 5 4 3 2 1 2 2 2 2 2 2 2 2 3 3 4 4 5 5 6 6
31 30 28 27 26 25 24 23 21 21 20 20 19 17 16 14 11 10 8 8 8 8 8 7 7 5 4 3 2 2 2 2 2 1 1 2 2 3 5 4 5 5 6 6
30 31 30 29 29 27 26 25 23 22 21 21 20 18 15 14 13 11 9 9 9 9 9 8 8 7 6 5 5 5 4 4 3 3 3 3 4 4 4 5 6 7 7 8
30 31 31 30 30 29 28 27 25 24 22 22 21 18 16 15 13 12 11 10 10 11 10 10 10 8 8 7 7 7 7 6 5 5 5 5 6 6 5 6 7 8 8 9
30 31 31 32 31 31 30 29 28 26 24 23 21 18 17 15 14 14 13 13 13 12 11 11 10 10 9 8 8 8 8 8 7 7 7 7 8 8 8 8 8 9 10 11
29 30 30 31 31 30 30 30 29 27 25 24 22 19 17 16 16 16 15 14 13 12 11 11 11 11 11 10 10 9 10 10 10 9 10 10 10 10 10 10 11 12 12 12
29 29 29 28 30 31 30 30 29 28 27 26 24 22 19 18 18 18 18 17 15 13 12 12 12 13 13 13 13 13 13 13 13 12 12 12 12 12 12 12 13 14 14 14
28 28 28 27 28 30 31 32 31 30 29 28 26 24 23 21 20 19 18 17 17 15 15 16 15 15 16 16 16 16 15 15 15 15 14 14 14 13 13 14 15 15 16 16
29 28 27 28 27 28 31 31 31 31 30 29 28 26 24 24 22 20 20 19 19 19 19 19 18 18 18 18 18 18 18 18 18 18 18 16 16 16 16 17 18 18 18 19
31 30 29 29 29 30 29 29 30 31 31 30 29 27 26 25 24 23 22 22 22 22 21 20 20 20 21 21 21 21 21 21 21 20 19 19 19 20 20 21 21 21 22 22
32 32 31 31 31 31 29 28 28 29 30 30 29 28 27 27 27 26 24 23 23 23 23 23 23 23 23 23 24 24 24 24 22 22 22 22 23 23 24 24 24 24 24 24
32 32 32 31 31 31 28 28 28 29 29 29 29 29 28 29 28 27 27 26 26 26 26 25 24 25 26 26 26 26 27 27 25 25 25 25 26 26 26 27 27 27 27 27
32 33 32 32 32 31 29 28 28 29 28 29 29 29 29 30 31 31 30 28 27 27 26 27 27 27 28 28 28 29 29 29 29 28 28 28 29 29 29 30 30 30 30 30
33 33 32 32 33 32 30 30 29 29 29 29 29 30 30 30 31 31 30 29 28 28 28 29 29 30 30 30 31 31 31 31 31 30 30 31 31 31 32 32 32 32 33 33
32 32 32 32 32 31 30 30 30 30 31 30 30 30 31 31 31 31 31 31 31 31 30 30 31 32 32 33 33 32 32 32 32 32 33 33 34 34 33 33 33 33 33 33
31 32 32 32 31 31 30 31 31 31 31 32 32 32 32 33 33 33 33 33 32 32 32 32 33 33 34 34 34 34 33 32 33 33 33 34 35 35 34 33 33 33 32 32
30 30 31 31 31 31 31 31 31 30 30 31 32 33 34 35 34 35 35 34 33 33 33 34 34 34 35 35 35 35 35 35 33 33 33 33 34 34 34 33 33 33 33 34
30 30 31 31 31 31 32 32 31 31 31 31 31 32 34 34 34 35 35 34 34 34 35 35 35 35 36 35 35 35 35 35 34 34 33 33 33 33 33 33 33 34 35 35
Wind_Direction
212 213 214 218 215 213 224 242 320 4 15 19 22 18 15 16 22 27 29 34 40 45 49 49 51 51 52 56 59 64 69 73 73 72 75 79 80 78 78 81 84 85 92 100
215 214 215 219 219 223 232 244 264 279 315 337 2 6 2 2 5 16 22 27 35 38 46 51 50 50 52 55 58 64 69 73 75 73 73 77 77 78 76 76 80 81 85 87
219 217 218 220 221 227 237 249 261 264 279 295 333 349 354 349 348 0 13 20 31 36 39 48 50 49 53 57 61 65 69 72 75 75 74 73 75 77 77 74 75 76 74 75
220 218 221 222 222 229 238 250 258 258 264 283 305 324 342 339 333 343 357 7 23 32 34 42 48 49 55 61 65 67 70 71 72 73 73 73 74 73 71 70 68 69 68 65
220 220 222 223 223 232 238 248 253 256 261 271 286 302 320 323 328 332 342 353 360 16 31 34 41 48 54 64 68 68 69 71 73 72 72 73 73 70 66 65 61 61 61 58
219 219 221 224 225 231 237 245 251 256 261 266 278 289 305 309 318 327 333 341 343 357 18 23 32 44 56 69 69 67 68 71 73 74 74 72 70 67 64 61 59 56 54 51
219 219 222 224 227 232 237 242 250 253 256 263 272 279 290 298 302 309 315 322 324 336 354 8 22 40 55 64 66 67 65 64 70 73 73 70 65 61 58 55 52 50 48 46
221 220 222 225 228 234 239 245 251 255 257 262 269 273 277 285 289 294 298 295 293 299 309 323 344 24 45 55 58 62 59 53 62 72 72 67 63 57 52 51 46 42 39 34
221 222 223 227 230 233 237 242 250 255 258 259 262 266 270 278 285 283 285 283 281 279 285 294 298 308 332 16 23 7 20 27 37 57 62 55 49 42 39 37 27 27 26 18
220 221 223 228 230 234 237 239 245 251 253 257 259 261 270 278 285 281 273 271 273 277 277 280 280 282 283 291 295 307 308 324 330 334 326 325 343 10 19 12 9 7 4 360
221 222 223 228 230 234 238 240 244 248 253 258 261 263 269 272 274 270 267 270 269 272 280 278 274 271 273 276 283 291 292 289 287 295 292 297 309 327 347 356 354 350 344 343
223 224 225 227 231 234 237 239 241 247 252 257 262 265 267 270 269 265 266 268 270 272 276 275 273 269 275 280 287 292 287 286 286 286 280 290 306 316 323 325 328 331 330 329
225 227 228 227 230 233 235 237 240 245 250 255 259 264 265 267 267 268 264 263 268 267 269 270 271 267 269 275 282 285 283 288 286 289 288 289 296 303 306 308 311 314 317 320
228 230 231 231 231 234 236 238 240 243 248 254 259 261 260 264 266 267 263 263 265 262 263 262 260 260 264 270 274 277 280 282 285 284 287 285 286 291 295 300 301 305 310 313
230 233 233 233 231 232 235 238 239 242 246 252 258 261 262 262 265 267 264 262 264 266 267 263 264 265 265 267 270 274 278 279 280 275 275 281 286 286 293 297 298 300 302 307
233 236 236 235 233 233 235 238 239 241 245 251 256 261 261 260 261 264 259 258 260 264 266 265 264 265 266 266 268 271 273 273 274 274 276 281 285 288 293 299 299 304 304 304
236 238 239 238 237 238 238 238 242 244 246 250 256 260 260 259 259 260 257 258 264 266 265 264 263 263 263 264 265 267 268 269 272 274 275 279 284 288 293 295 297 299 301 303
237 239 241 241 241 242 241 241 244 247 248 251 255 256 256 257 257 258 260 264 268 268 265 263 261 264 264 265 266 266 266 265 268 272 274 276 281 283 286 288 291 293 294 300
237 239 242 244 246 245 244 245 247 249 249 250 252 254 254 256 257 258 262 265 269 267 265 265 265 266 265 265 266 266 267 267 269 268 268 270 274 277 280 284 286 289 291 293
238 240 242 243 246 247 247 247 248 249 249 249 252 254 255 256 256 257 260 264 267 268 268 267 267 267 269 268 268 267 268 269 268 267 267 268 270 274 277 280 282 285 287 289
239 241 244 246 248 250 249 249 249 249 250 250 252 254 254 255 257 258 260 264 265 266 267 267 268 270 271 271 269 268 269 269 268 268 270 272 271 272 274 277 279 282 283 285
239 241 243 245 247 250 250 251 250 251 250 250 251 253 253 255 258 260 262 263 264 264 266 268 269 270 272 273 271 269 269 269 267 267 269 271 273 274 276 277 279 281 284 286
240 240 242 245 247 250 252 253 252 251 250 249 251 253 255 257 259 260 260 263 266 265 267 270 272 272 273 275 273 269 268 267 267 269 268 270 273 275 278 279 280 282 284 286
240 240 243 245 247 250 253 254 255 253 252 252 252 253 255 257 259 260 261 263 264 265 267 270 272 273 273 273 272 270 268 266 267 269 269 271 272 275 277 279 280 282 285 287
240 241 242 244 247 249 251 254 256 257 257 257 257 257 257 256 258 260 261 263 265 268 270 270 271 273 272 270 271 270 269 269 270 269 271 274 275 276 277 278 280 281 283 285
240 243 244 246 248 250 252 253 254 257 258 258 259 259 260 261 262 263 263 263 266 268 270 271 271 272 271 270 269 269 268 269 270 271 272 274 275 275 276 277 280 282 284 284
Height
5908 5911 5912 5913 5915 5916 5916 5916 5916 5916 5915 5915 5915 5914 5913 5911 5910 5908 5907 5905 5903 5901 5899 5898 5897 5895 5894 5892 5891 5889 5888 5887 5887 5886 5885 5885 5884 5884 5884 5883 5883 5883 5883 5883
5907 5909 5911 5912 5913 5914 5915 5916 5916 5916 5915 5915 5915 5914 5914 5912 5911 5909 5908 5906 5904 5903 5901 5899 5898 5897 5895 5894 5892 5891 5890 5889 5888 5888 5887 5886 5886 5885 5885 5884 5884 5884 5884 5884
5904 5908 5909 5910 5912 5913 5914 5915 5915 5915 5915 5915 5915 5915 5914 5913 5912 5911 5909 5908 5906 5905 5903 5901 5899 5898 5897 5896 5894 5894 5893 5891 5890 5889 5889 5888 5887 5887 5886 5886 5885 5885 5885 5885
5901 5904 5906 5908 5910 5912 5913 5913 5914 5914 5914 5914 5915 5914 5914 5913 5912 5911 5910 5909 5907 5906 5904 5903 5901 5899 5898 5897 5896 5895 5894 5893 5892 5891 5890 5890 5889 5889 5888 5887 5887 5886 5886 5885
5898 5901 5903 5906 5908 5909 5911 5912 5912 5913 5913 5913 5913 5914 5914 5912 5912 5912 5910 5909 5908 5907 5905 5904 5902 5900 5899 5898 5898 5897 5896 5895 5894 5893 5892 5892 5891 5890 5889 5889 5888 5888 5887 5886
5894 5897 5900 5903 5905 5907 5908 5910 5910 5911 5911 5912 5912 5912 5913 5912 5912 5911 5911 5909 5908 5908 5906 5905 5903 5901 5900 5899 5899 5898 5898 5897 5896 5895 5894 5893 5893 5892 5891 5890 5889 5889 5888 5887
5889 5893 5896 5899 5902 5904 5905 5907 5908 5908 5909 5910 5911 5910 5912 5911 5911 5911 5910 5909 5908 5908 5907 5906 5904 5903 5901 5901 5900 5900 5899 5898 5897 5896 5895 5894 5894 5893 5892 5891 5890 5890 5889 5888
5885 5889 5893 5896 5898 5900 5902 5904 5906 5906 5907 5908 5908 5908 5910 5910 5910 5909 5909 5908 5908 5907 5907 5906 5905 5904 5902 5902 5901 5900 5899 5899 5897 5896 5896 5895 5894 5894 5893 5892 5891 5890 5890 5889
5880 5885 5889 5892 5895 5897 5898 5900 5902 5903 5903 5904 5905 5906 5908 5908 5908 5908 5908 5907 5907 5907 5906 5905 5905 5904 5903 5902 5901 5900 5900 5899 5898 5897 5896 5895 5895 5894 5893 5892 5892 5891 5890 5889
5876 5881 5884 5887 5890 5892 5895 5897 5899 5899 5900 5901 5902 5903 5905 5906 5906 5905 5906 5906 5905 5905 5905 5904 5904 5903 5902 5902 5901 5900 5899 5898 5898 5896 5896 5895 5894 5894 5892 5892 5891 5891 5890 5889
5871 5876 5880 5882 5885 5887 5890 5893 5894 5896 5897 5898 5899 5903 5903 5903 5903 5903 5903 5903 5904 5904 5903 5903 5902 5902 5902 5901 5900 5900 5899 5898 5896 5895 5895 5895 5894 5893 5892 5892 5891 5890 5889 5888
5866 5870 5873 5877 5880 5883 5885 5888 5890 5892 5893 5894 5896 5901 5899 5900 5900 5900 5901 5901 5901 5901 5901 5901 5901 5901 5900 5900 5899 5898 5897 5897 5896 5895 5894 5894 5893 5892 5892 5891 5890 5889 5888 5887
5860 5864 5868 5871 5876 5878 5879 5882 5885 5888 5889 5890 5892 5897 5896 5896 5897 5897 5898 5898 5898 5898 5898 5898 5898 5898 5898 5898 5897 5896 5895 5894 5894 5893 5893 5892 5892 5891 5890 5889 5888 5887 5886 5885
5855 5858 5863 5867 5870 5873 5875 5877 5880 5883 5884 5886 5888 5891 5892 5893 5893 5894 5894 5894 5895 5895 5896 5896 5895 5896 5896 5895 5895 5894 5893 5893 5892 5891 5891 5890 5889 5888 5888 5887 5885 5884 5883 5882
5850 5853 5856 5860 5864 5867 5869 5872 5875 5877 5879 5882 5884 5886 5888 5889 5890 5890 5890 5891 5891 5892 5892 5892 5893 5893 5893 5892 5892 5891 5890 5890 5889 5888 5887 5886 5886 5885 5884 5883 5882 5881 5880 5879
5844 5848 5851 5855 5858 5861 5863 5866 5869 5871 5874 5876 5878 5881 5883 5883 5885 5885 5886 5887 5888 5888 5888 5889 5889 5889 5889 5888 5887 5887 5887 5886 5885 5885 5884 5884 5882 5881 5881 5879 5878 5877 5876 5875
5839 5842 5846 5849 5852 5854 5857 5860 5863 5865 5868 5871 5872 5876 5876 5878 5879 5880 5881 5882 5883 5883 5884 5884 5884 5884 5884 5883 5882 5882 5882 5881 5881 5881 5880 5879 5878 5877 5877 5876 5875 5874 5872 5871
5833 5836 5839 5842 5846 5848 5853 5854 5856 5859 5862 5864 5866 5868 5870 5872 5874 5875 5876 5877 5877 5877 5878 5878 5878 5878 5877 5877 5877 5876 5876 5876 5875 5875 5875 5876 5875 5874 5873 5872 5871 5869 5868 5866
5827 5830 5833 5836 5838 5841 5845 5847 5850 5853 5855 5857 5860 5862 5864 5865 5867 5868 5869 5870 5871 5871 5871 5871 5871 5871 5871 5870 5870 5870 5870 5870 5870 5870 5870 5870 5869 5868 5868 5866 5865 5863 5863 5861
5820 5823 5827 5829 5831 5834 5839 5841 5843 5846 5848 5851 5853 5855 5857 5858 5860 5862 5862 5863 5863 5864 5864 5864 5864 5864 5864 5864 5863 5863 5863 5863 5863 5863 5863 5862 5862 5861 5861 5860 5859 5858 5856 5855
5813 5816 5819 5822 5824 5827 5831 5833 5836 5840 5843 5844 5846 5848 5849 5851 5852 5854 5854 5855 5856 5856 5856 5857 5857 5856 5856 5856 5855 5855 5855 5855 5855 5855 5855 5855 5854 5854 5853 5852 5851 5850 5849 5847
5806 5809 5812 5815 5818 5822 5824 5826 5829 5831 5834 5836 5837 5839 5841 5842 5843 5845 5846 5847 5847 5848 5848 5849 5849 5848 5847 5847 5846 5845 5845 5845 5846 5846 5846 5846 5846 5845 5844 5843 5842 5841 5840 5839
5798 5802 5805 5808 5812 5814 5816 5818 5821 5823 5825 5827 5829 5831 5833 5834 5835 5836 5837 5838 5839 5839 5840 5840 5839 5839 5838 5837 5836 5836 5836 5836 5837 5837 5837 5837 5837 5836 5835 5834 5832 5831 5831 5829
5791 5794 5798 5801 5803 5806 5808 5810 5812 5814 5816 5819 5821 5822 5824 5825 5826 5827 5828 5829 5829 5830 5830 5830 5830 5829 5828 5827 5826 5826 5826 5826 5827 5827 5828 5828 5827 5826 5825 5824 5823 5823 5821 5820
5784 5787 5790 5793 5796 5798 5800 5802 5804 5806 5808 5810 5811 5813 5814 5815 5816 5817 5818 5819 5819 5819 5820 5819 5819 5818 5818 5816 5815 5815 5815 5816 5816 5817 5817 5817 5817 5817 5816 5815 5814 5813 5812 5811
5777 5780 5783 5786 5788 5791 5793 5795 5796 5798 5800 5801 5802 5803 5804 5805 5806 5807 5807 5808 5808 5808 5808 5808 5808 5807 5807 5806 5805 5805 5804 5805 5806 5806 5807 5807 5807 5807 5806 5805 5805 5803 5802 5801